Preview of NWS' New Version of Forecast
This preview is not operational and should not be used for support decisions.

Regional Weather Roundup (RWR)

Issued by National Weather Service (NWS)

                            
000
ASUS43 KMKX 220601
RWRWI 

WISCONSIN REGIONAL WEATHER ROUNDUP
NATIONAL WEATHER SERVICE MILWAUKEE/SULLIVAN WI
100 AM CDT THU AUG 22 2019

NOTE: "FAIR" INDICATES FEW OR NO CLOUDS BELOW 12,000 FEET WITH NO
SIGNIFICANT WEATHER AND/OR OBSTRUCTIONS TO VISIBILITY.

WIZ001-002-006>008-014>016-023>028-220700-
NORTHWEST WISCONSIN
  
CITY           SKY/WX    TMP DP  RH WIND       PRES   REMARKS
SUPERIOR ARPT  CLOUDY    58  50  76 CALM      30.05F                  
6HR MIN TEMP:  52; 6HR MAX TEMP:  71;                                

ASHLAND        FAIR      51  50  96 W3        30.05S                  
6HR MIN TEMP:  49; 6HR MAX TEMP:  68;                                

HAYWARD        CLOUDY    56  50  80 CALM      30.06S                  
6HR MIN TEMP:  52; 6HR MAX TEMP:  69;                                

SIREN          CLOUDY    53  50  89 CALM      30.07S                  
6HR MIN TEMP:  51; 6HR MAX TEMP:  68;                                

CUMBERLAND     CLOUDY    55  50  82 N5        30.07S                  
RICE LAKE      CLOUDY    57  43  59 NW3       30.07S                  
6HR MIN TEMP:  55; 6HR MAX TEMP:  70;                                

CHETEK         CLOUDY    61  54  77 N7        30.06S                  
LADYSMITH      CLOUDY    59  56  88 CALM      30.07S                  
6HR MIN TEMP:  54; 6HR MAX TEMP:  69;                                

EAU CLAIRE     NOT AVBL                                               
MENOMONIE      CLOUDY    56  55  96 CALM      30.05S                  
6HR MIN TEMP:  56; 6HR MAX TEMP:  68;                                

NEW RICHMOND   CLOUDY    58  53  83 N3        30.07R                  
OSCEOLA        MOCLDY    57  57 100 NW3       30.09S                  
$$
 
WIZ003>005-009-010-017-018-220700-
NORTH CENTRAL WISCONSIN
  
CITY           SKY/WX    TMP DP  RH WIND       PRES   REMARKS
MANITOWISH WTR   N/A     46  46 100 N3        30.05S FOG              
6HR MIN TEMP:  46; 6HR MAX TEMP:  64;                                

ARBOR VITAE    FAIR      52  49  90 CALM      30.05S                  
WOODRUFF       FAIR      52  49  90 CALM      30.05S                  
RHINELANDER    FAIR      48  45  89 CALM      30.06R FOG              
6HR MIN TEMP:  46; 6HR MAX TEMP:  66;                                

EAGLE RIVER      N/A     45  45 100 CALM      30.05S FOG              
LAND O LAKES   FAIR      44  44  98 CALM      30.07S                  
6HR MIN TEMP:  44; 6HR MAX TEMP:  64;                                

PHILLIPS       FAIR      48  48 100 CALM      30.05S                  
6HR MIN TEMP:  47; 6HR MAX TEMP:  65;                                

TOMAHAWK       FAIR      44  43  97 CALM      30.06S                  
MEDFORD        CLOUDY    50  49  97 CALM      30.05S                  
6HR MIN TEMP:  48; 6HR MAX TEMP:  65;                                

MERRILL        FAIR      47  47 100 CALM      30.06R                  
6HR MIN TEMP:  47; 6HR MAX TEMP:  67;                                

$$
 
WIZ029-030-035-036-043>047-220700-
CENTRAL WISCONSIN
  
CITY           SKY/WX    TMP DP  RH WIND       PRES   REMARKS
WAUSAU         FAIR      53  50  89 CALM      30.03S                  
6HR MIN TEMP:  52; 6HR MAX TEMP:  70;                                

MOSINEE        FAIR      52  52 100 CALM      30.06S                  
MARSHFIELD     FAIR      54  51  90 NW3       30.04S                  
6HR MIN TEMP:  53; 6HR MAX TEMP:  69;                                

STEVENS POINT  FAIR      49  49 100 CALM      30.05S                  
6HR MIN TEMP:  49; 6HR MAX TEMP:  68;                                

WAUPACA        FAIR      55  52  89 CALM      30.04S                  
6HR MIN TEMP:  55; 6HR MAX TEMP:  72;                                

WAUTOMA        FAIR      53  52  96 CALM      30.04F                  
6HR MIN TEMP:  53; 6HR MAX TEMP:  71;                                

WISC RAPIDS    FAIR      53  51  93 CALM      30.05S                  
6HR MIN TEMP:  53; 6HR MAX TEMP:  72;                                

CAMP DOUGLAS   FOG       50  50 100 CALM      30.04S VSB 1/2          
$$
 
WIZ011>013-019>022-031-037>040-048>050-220700-
NORTHEAST WISCONSIN
  
CITY           SKY/WX    TMP DP  RH WIND       PRES   REMARKS
ANTIGO         FAIR      47  46  99 CALM      30.06S                  
6HR MIN TEMP:  47; 6HR MAX TEMP:  65;                                

SHAWANO        FAIR      55  51  86 CALM      30.03F                  
6HR MIN TEMP:  55; 6HR MAX TEMP:  72;                                

OCONTO         FAIR      51  49  94 CALM      30.03R                  
6HR MIN TEMP:  50; 6HR MAX TEMP:  70;                                

STURGEON BAY   FAIR      60  53  77 NE5       30.03S                  
6HR MIN TEMP:  60; 6HR MAX TEMP:  69;                                

GREEN BAY      CLOUDY    61  50  67 CALM      30.03S                  
6HR MIN TEMP:  58; 6HR MAX TEMP:  74;                                

MANITOWOC      FAIR      61  52  72 N5        30.03R                  
6HR MIN TEMP:  61; 6HR MAX TEMP:  72;                                

APPLETON       FAIR      57  43  58 N5        30.02S                  
CLINTONVILLE   FAIR      53  47  81 CALM      30.04R                  
6HR MIN TEMP:  53; 6HR MAX TEMP:  73;                                

OSHKOSH        FAIR      63  49  60 CALM      30.02S                  
6HR MIN TEMP:  61; 6HR MAX TEMP:  73;                                

$$
 
WIZ032>034-041-042-053>061-220700-
SOUTHWEST WISCONSIN
  
CITY           SKY/WX    TMP DP  RH WIND       PRES   REMARKS
LA CROSSE      FAIR      60  55  83 SE3       30.04S                  
6HR MIN TEMP:  60; 6HR MAX TEMP:  73;                                

SPARTA         FAIR      49  49  98 CALM      30.06S                  
VIROQUA        FAIR      60  56  84 CALM      30.06S                  
6HR MIN TEMP:  60; 6HR MAX TEMP:  67;                                

BOSCOBEL       FAIR      56  55  97 CALM      30.05R                  
6HR MIN TEMP:  56; 6HR MAX TEMP:  73;                                

PRAIRIE DU CHI FAIR      59  57  91 CALM      30.05R                  
PLATTEVILLE    FAIR      62  61  96 CALM      30.06S                  
6HR MIN TEMP:  62; 6HR MAX TEMP:  71;                                

$$

WIZ056-057-062-063-064-067-068-220700-
SOUTH CENTRAL WISCONSIN
  
CITY           SKY/WX    TMP DP  RH WIND       PRES   REMARKS
REEDSBURG      FAIR      58  57  96 CALM      30.04S                  
6HR MIN TEMP:  58; 6HR MAX TEMP:  71;                                

BARABOO/DELLS  FAIR      56  53  88 CALM      30.05R                  
6HR MIN TEMP:  56; 6HR MAX TEMP:  69;                                

LONE ROCK      NOT AVBL                                               
MINERAL POINT    N/A     61  59  94 CALM      30.06R                  
MADISON        FAIR      62  54  74 NW3       30.03R                  
6HR MIN TEMP:  62; 6HR MAX TEMP:  72;                                

MIDDLETON      FAIR      63  54  73 CALM      30.04S                  
WATERTOWN      FAIR      62  55  76 N3        30.03R                  
MONROE         FAIR      64  55  74 N5        30.05R                  
JANESVILLE     FAIR      63  59  88 CALM      30.02S                  
$$
 
WIZ051-052-058>065-066-070>072-220700-
SOUTHEAST WISCONSIN
  
CITY           SKY/WX    TMP DP  RH WIND       PRES   REMARKS
MILWAUKEE      MOCLDY    69  52  54 N9        30.00S                  
6HR MIN TEMP:  68; 6HR MAX TEMP:  77;                                

WAUKESHA       FAIR      63  52  67 NW3       30.03S                  
MILWAUKEE/TIMM FAIR      63  50  63 N8        30.02S                  
RACINE         FAIR      67  58  72 NW5       30.01S                  
6HR MIN TEMP:  67; 6HR MAX TEMP:  76;                                

KENOSHA        FAIR      68  60  75 NW5       30.00S                  
6HR MIN TEMP:  67; 6HR MAX TEMP:  75;                                

FOND DU LAC    FAIR      65  50  58 NE8       30.03S                  
6HR MIN TEMP:  65; 6HR MAX TEMP:  74;                                

SHEBOYGAN      FAIR      62  50  64 N8        30.02R                  
6HR MIN TEMP:  62; 6HR MAX TEMP:  73; 6HR PCP: TRACE;                

WEST BEND      FAIR      61  52  72 N3        30.03R                  
JUNEAU         FAIR      60  53  77 CALM      30.04S                  
6HR MIN TEMP:  60; 6HR MAX TEMP:  71;                                

$$

LSZ147-162-220700-
LAKE SUPERIOR
  
STATION/POSITION TIME  TEMP    WIND        PRES    WAVE
                       AIR SEA DIR/SP/G            HT/PER
                 (UTC) (F)     (DEG/KT/KT) (MB)    (FT/S)
W MID LAKE BUOY  0450   63 63  360/ 12/ 14 1016.8R   1
DEVILS ISLAND    0500   63      30/  9/ 10 1017.7R
SAXON HARBOR     0530   66      60/ 10/ 15 1016.9R
$$
 
LMZ867-665-643>646-220700-
LAKE MICHIGAN
  
STATION/POSITION TIME  TEMP    WIND        PRES    WAVE
                       AIR SEA DIR/SP/G            HT/PER
                 (UTC) (F)     (DEG/KT/KT) (MB)    (FT/S)
S GREEN BAY BUOY 0530   73 70   30/ 10/ 12 1016.5S
N MID LAKE BUOY  0540   65 70  360/ 12/ 16 1016.4F
NORTHPORT PIER   0540   64     350/  4/  5 1015.9F
KEWAUNEE LAKESHO 0530   63      10/  2/  6 1015.9R
SHEBOYGAN LAKESH 0500   67     350/ 15/ 17 1016.2R
PORT WASHINGTON  0540   66     330/  6/ 10 1017.3R
ATWATER BUOY     0430   71 71  330/ 10/ 12 1016.0R   1/ 3
S MID LAKE BUOY  0540   72 74   10/  4/  4 1015.6F
KENOSHA   LAKESH 0500   71     300/  7/  8 1015.6
$$

TC  - TEMPERATURE IN CELSIUS
VSB - VISIBILITY IN STATUTE MILES
WCI - WIND CHILL INDEX
HX  - HEAT INDEX